[[{"header":{"parameterUnit":"m.s-1","parameterCategory":1,"la1":30.2991,"la2":30.254,"lo1":-89.0895,"lo2":-89.0444,"dy":0.0017,"dx":0.0017,"nx":28,"ny":28,"refTime":"2023-04-01T21:00:00:Z","depth":0,"parameterNumber":2,"parameterNumberName":"U-component_of_WINDS"},"data":[0,0,0,0,0,0,0,0,0,0,0,0,0,0,0,0,0,0,0,0,0,0,0,0,0,0,0,0,0,0,0,0,0,0,0,0,0,0,0,0,0,0,0,0,0,0,0,0,0,0,0,0,0,0,0,0,0,0,2.0698,2.0697,0,2.0644,2.0643,2.0642,2.0585,2.0584,2.0583,2.0583,2.053,2.0529,2.0528,0,0,0,0,0,0,0,0,0,0,0,0,0,2.0757,2.0756,2.0698,2.0697,2.0696,2.0644,2.0643,2.0642,2.0585,2.0584,2.0583,2.0582,2.053,2.0529,2.0528,0,0,0,0,0,0,0,0,0,0,0,0,0,2.072,2.0756,2.0698,2.0661,2.0658,2.0644,2.0643,2.0642,2.0585,2.0584,2.0583,2.0582,2.053,2.0529,2.0528,2.0547,0,0,2.0525,2.0525,0,0,0,0,0,0,0,0,2.0722,2.0718,2.0668,2.0664,2.066,2.062,2.0644,2.061,2.0586,2.0613,2.0583,2.0581,2.0561,2.0557,2.055,2.0544,2.0542,2.0525,2.0525,2.0524,2.0524,0,0,0,0,0,0,0,2.0724,2.072,2.0676,2.0667,2.0662,2.065,2.0643,2.0637,2.0594,2.061,2.0606,2.06,2.0558,2.0551,2.0548,2.0541,2.0525,2.0524,2.0524,2.0523,2.0552,2.0553,0,0,0,0,0,0,2.0732,2.0722,2.0678,2.0675,2.0688,2.0649,2.0642,2.0634,2.0594,2.0587,2.0602,2.0598,2.0553,2.0549,2.0546,2.0567,2.0524,2.0523,2.0523,2.055,2.0552,2.0553,0,0,0,0,0,0,2.0734,2.0729,2.068,2.0697,2.069,2.065,2.0641,2.0633,2.0626,2.0587,2.058,2.0601,2.0552,2.0547,2.0548,2.0564,2.0523,2.0522,2.0549,2.0551,2.0553,2.0608,0,0,0,0,0,0,2.0735,2.0729,2.0734,2.0698,2.0689,2.0681,2.0642,2.0633,2.0624,2.0619,2.0585,2.0579,2.0551,2.0549,2.0547,2.0562,2.0521,2.0547,2.055,2.0552,2.0604,2.0611,2.0617,0,0,0,0,0,2.0738,2.0752,2.0735,2.073,2.0695,2.0682,2.0677,2.0644,2.0625,2.0631,2.0607,2.058,2.0563,2.055,2.0546,2.0562,2.0546,2.0549,2.0552,2.0601,2.061,2.0617,0,0,0,0,0,0,2.0791,2.0746,2.0727,2.0729,2.071,2.0672,2.0678,2.0654,2.064,2.0636,2.0596,2.0589,2.0595,2.0578,2.0564,2.0579,2.0551,2.0553,2.059,2.0597,2.0604,2.0608,2.052,0,0,0,0,0,2.0803,2.0796,2.0757,2.0763,2.0755,2.0719,2.0712,2.0688,2.0667,2.0658,2.0634,2.0616,2.0607,2.0601,2.059,2.0602,2.0595,2.0611,2.0618,2.0624,2.0626,2.0634,2.0641,2.0563,2.0563,2.0563,0,0,2.0828,2.0803,2.08,2.0774,2.0756,2.0751,2.0712,2.0707,2.0703,2.0658,2.0656,2.0639,2.0616,2.0623,2.0624,2.0609,2.0647,2.0627,2.0632,2.0632,2.0638,2.0645,2.0652,2.0565,2.0565,2.0565,0,0,2.0871,2.085,2.0854,2.0838,2.0811,2.0788,2.0789,2.0756,2.0743,2.0741,2.0708,2.0704,2.0688,2.0674,2.0664,2.0707,2.0682,2.0704,2.0739,2.0747,2.0753,2.0759,2.0775,2.0782,2.0707,2.0707,2.0707,0,2.0905,2.0894,2.0859,2.0857,2.0848,2.0807,2.0812,2.0799,2.0771,2.0766,2.0749,2.0731,2.0712,2.0717,2.0727,2.0721,2.0723,2.0707,2.0755,2.076,2.0764,2.078,2.0786,2.071,2.071,2.071,2.0709,0,2.0939,2.0932,2.0939,2.0914,2.0905,2.0907,2.0874,2.087,2.0849,2.0828,2.0829,2.0806,2.0791,2.079,2.0769,2.0793,2.0784,2.0762,2.0732,2.0776,2.079,2.0795,2.0715,2.0714,2.0713,2.0712,0,0,2.101,2.0968,2.0971,2.0961,2.0931,2.0926,2.0928,2.0914,2.0912,2.0895,2.0897,2.0887,2.0867,2.0857,2.0834,2.0841,2.0879,2.0818,2.0817,2.0832,2.0907,2.0924,2.0931,2.0863,2.0864,2.0865,2.0909,0,2.1048,2.1047,2.1018,2.1026,2.1021,2.0985,2.0987,2.097,2.0952,2.0947,2.0927,2.0921,2.0894,2.0888,2.0894,2.0873,2.0894,2.087,2.0866,2.0866,2.0873,2.0938,2.0955,2.0999,2.0914,2.0915,2.0916,0,2.1091,2.1078,2.1086,2.1059,2.1056,2.1058,2.1045,2.1039,2.1021,2.1008,2.0999,2.0973,2.0976,2.0949,2.0952,2.0937,2.0934,2.0924,2.0925,2.0923,2.0893,2.0939,2.1011,2.1018,2.0924,2.0923,2.0923,0,2.1144,2.1129,2.1132,2.1124,2.1093,2.1096,2.1083,2.1063,2.1058,2.1047,2.1043,2.1033,2.1027,2.1021,2.0995,2.0977,2.1003,2.0973,2.0993,2.0994,2.0999,2.0999,2.1073,2.0997,2.0997,2.0997,2.0997,0,2.119,2.1196,2.1156,2.1158,2.1166,2.1134,2.1142,2.1126,2.111,2.111,2.1079,2.108,2.1045,2.1043,2.1023,2.1031,2.1028,2.1019,2.1013,2.1021,2.1023,2.1019,2.1015,2.0999,2.0998,2.0998,2.0998,0,2.1249,2.1223,2.1224,2.1196,2.1189,2.1196,2.1172,2.1174,2.1156,2.1156,2.1155,2.1126,2.1122,2.1096,2.1086,2.1072,2.1088,2.1077,2.1094,2.1091,2.1113,2.1112,2.1186,2.1196,2.1114,2.1115,2.1116,0,2.128,2.1284,2.1257,2.1255,2.1244,2.124,2.1235,2.1205,2.1201,2.1183,2.1188,2.1182,2.1176,2.1172,2.1151,2.1145,2.1133,2.116,2.1132,2.1141,2.1135,2.1135,2.1137,2.1166,2.1167,2.1168,2.1168,0,2.1337,2.1325,2.1318,2.1308,2.1303,2.1294,2.1282,2.1283,2.125,2.1248,2.1244,2.1239,2.1231,2.1226,2.1216,2.1205,2.1182,2.1178,2.1182,2.1191,2.1201,2.1197,2.1111,2.1176,2.1175,2.1175,2.1174,2.1174,2.1383,2.1387,2.1369,2.1364,2.1353,2.1345,2.1346,2.1329,2.1324,2.1315,2.1298,2.1298,2.1283,2.1268,2.1259,2.126,2.1246,2.1252,2.1254,2.1256,2.1261,2.1202,2.1258,2.1258,2.1257,2.1257,2.1257,0,2.144,2.1428,2.1424,2.141,2.1407,2.1386,2.1374,2.1373,2.1373,2.1361,2.1356,2.1354,2.135,2.133,2.1325,2.1329,2.1319,2.1329,2.1329,2.1327,2.1273,2.127,2.1338,2.1338,2.1338,2.1338,2.1338,2.1338,2.1469,2.1475,2.1462,2.1463,2.1451,2.145,2.1445,2.1438,2.1429,2.1427,2.1424,2.1412,2.1398,2.1392,2.1389,2.1383,2.1383,2.1397,2.1388,2.1338,2.133,2.1323,2.132,2.1397,2.1397,2.1442,2.1443,2.1443]},{"header":{"parameterUnit":"m.s-1","parameterCategory":1,"la1":30.2991,"la2":30.254,"lo1":-89.0895,"lo2":-89.0444,"dy":0.0017,"dx":0.0017,"nx":28,"ny":28,"refTime":"2023-04-01T21:00:00:Z","depth":0,"parameterNumber":3,"parameterNumberName":"V-component_of_WINDS"},"data":[0,0,0,0,0,0,0,0,0,0,0,0,0,0,0,0,0,0,0,0,0,0,0,0,0,0,0,0,0,0,0,0,0,0,0,0,0,0,0,0,0,0,0,0,0,0,0,0,0,0,0,0,0,0,0,0,0,0,3.5203,3.5204,0,3.5324,3.5325,3.5327,3.5342,3.5341,3.5339,3.5338,3.546,3.5464,3.5468,0,0,0,0,0,0,0,0,0,0,0,0,0,3.4983,3.4987,3.5203,3.5204,3.5206,3.5324,3.5325,3.5327,3.5342,3.5341,3.5339,3.5338,3.5458,3.5463,3.5468,0,0,0,0,0,0,0,0,0,0,0,0,0,3.5089,3.4989,3.5203,3.5228,3.5231,3.5323,3.5325,3.5327,3.5342,3.534,3.5339,3.5337,3.5456,3.5463,3.5469,3.5544,0,0,3.5489,3.5492,0,0,0,0,0,0,0,0,3.5083,3.5097,3.5222,3.5226,3.523,3.5316,3.5292,3.54,3.5343,3.53,3.5338,3.5336,3.5413,3.5423,3.5449,3.555,3.5555,3.5489,3.5493,3.5496,3.5498,0,0,0,0,0,0,0,3.5075,3.5092,3.5251,3.5224,3.5229,3.5232,3.5245,3.5313,3.5365,3.5304,3.5305,3.5319,3.5415,3.5443,3.5452,3.5557,3.5489,3.5495,3.5499,3.5502,3.5726,3.5728,0,0,0,0,0,0,3.5064,3.5086,3.5247,3.5254,3.5151,3.5238,3.5252,3.529,3.5364,3.5374,3.5321,3.5319,3.5433,3.5445,3.5457,3.5551,3.5496,3.5502,3.5506,3.5724,3.5726,3.5729,0,0,0,0,0,0,3.5059,3.5078,3.5242,3.517,3.5192,3.5243,3.5286,3.5293,3.5322,3.5377,3.5386,3.534,3.5432,3.5448,3.5523,3.5555,3.5505,3.5511,3.5721,3.5725,3.5727,3.5738,0,0,0,0,0,0,3.5053,3.5076,3.5106,3.5171,3.5195,3.5306,3.5288,3.5297,3.5333,3.5333,3.5398,3.5407,3.5432,3.5513,3.5529,3.5563,3.5516,3.5719,3.5723,3.5726,3.5735,3.5741,3.5746,0,0,0,0,0,3.5045,3.5103,3.5107,3.5126,3.5233,3.5308,3.5322,3.5351,3.5336,3.5366,3.5401,3.5405,3.5549,3.5521,3.5539,3.5575,3.5717,3.5722,3.5726,3.5732,3.574,3.5746,0,0,0,0,0,0,3.5038,3.5112,3.5117,3.5198,3.5247,3.5311,3.5349,3.5357,3.5411,3.5408,3.544,3.5455,3.5529,3.5559,3.5527,3.5652,3.5631,3.564,3.563,3.5637,3.5643,3.5634,3.5521,0,0,0,0,0,3.5047,3.5102,3.5163,3.5228,3.5253,3.5297,3.533,3.5348,3.54,3.542,3.5461,3.5511,3.5567,3.5604,3.5658,3.5739,3.5754,3.5773,3.5778,3.5783,3.579,3.5836,3.5846,3.5744,3.5744,3.5744,0,0,3.5064,3.5111,3.5144,3.5228,3.5268,3.5325,3.5314,3.5374,3.5416,3.5429,3.5503,3.5535,3.5592,3.5671,3.5707,3.5699,3.5822,3.5789,3.5792,3.5797,3.5842,3.5852,3.586,3.5747,3.5746,3.5746,0,0,3.5124,3.5165,3.5225,3.5266,3.5327,3.5356,3.537,3.5433,3.5455,3.553,3.5542,3.5592,3.5688,3.5729,3.5762,3.584,3.5846,3.5857,3.5886,3.5931,3.5939,3.5946,3.5975,3.5985,3.5863,3.5864,3.5864,0,3.5138,3.5224,3.5254,3.5315,3.5352,3.5368,3.5429,3.5466,3.5542,3.5567,3.5556,3.5679,3.5718,3.5807,3.5826,3.5852,3.587,3.585,3.5936,3.5943,3.595,3.5978,3.5989,3.5865,3.5864,3.5864,3.5864,0,3.5238,3.5298,3.5339,3.5414,3.5455,3.5515,3.5555,3.5593,3.5607,3.5638,3.5714,3.5762,3.5828,3.585,3.5864,3.5942,3.5934,3.5929,3.5909,3.5961,3.5988,3.5998,3.5866,3.5866,3.5865,3.5865,0,0,3.5298,3.5389,3.5404,3.5439,3.5508,3.5555,3.5615,3.5681,3.5714,3.5765,3.5818,3.59,3.5896,3.5933,3.5952,3.5991,3.6051,3.5981,3.5983,3.5994,3.6141,3.6145,3.6157,3.6055,3.6057,3.6059,3.6137,0,3.5368,3.5478,3.5508,3.5602,3.5658,3.5674,3.5727,3.5775,3.5805,3.5857,3.5889,3.5947,3.5937,3.596,3.6,3.6035,3.6081,3.603,3.6104,3.6107,3.6091,3.6171,3.6176,3.6247,3.6147,3.6149,3.615,0,3.5463,3.5519,3.5619,3.5682,3.5707,3.5755,3.5818,3.5867,3.5922,3.5941,3.5984,3.5999,3.6063,3.6039,3.6129,3.6093,3.6125,3.6148,3.6151,3.616,3.6132,3.6183,3.627,3.6281,3.6167,3.6165,3.6164,0,3.5499,3.5598,3.5671,3.57,3.5776,3.5809,3.5842,3.5895,3.5933,3.5988,3.6013,3.6073,3.6107,3.6154,3.6185,3.6164,3.6272,3.625,3.629,3.6289,3.6313,3.6311,3.6407,3.6331,3.6331,3.6331,3.6331,0,3.5574,3.5635,3.5689,3.5733,3.5802,3.5835,3.5902,3.5935,3.5983,3.6034,3.6051,3.6099,3.6137,3.619,3.6215,3.6286,3.63,3.6318,3.6324,3.6317,3.6315,3.6339,3.6335,3.6334,3.6333,3.6333,3.6332,0,3.5625,3.5664,3.5745,3.581,3.5828,3.5876,3.5932,3.5976,3.6006,3.6072,3.6089,3.6137,3.62,3.6236,3.6315,3.6332,3.6412,3.6414,3.6394,3.6397,3.6435,3.6431,3.6551,3.6569,3.6479,3.648,3.6481,0,3.5671,3.5719,3.579,3.5826,3.586,3.5918,3.5958,3.5992,3.6032,3.6099,3.6135,3.62,3.6254,3.6354,3.6396,3.6457,3.6462,3.65,3.6472,3.6464,3.6465,3.6462,3.6467,3.6505,3.6506,3.6507,3.6507,0,3.5749,3.5766,3.5823,3.5887,3.5934,3.5985,3.6036,3.6065,3.6107,3.6152,3.6218,3.6259,3.6341,3.6406,3.6471,3.6504,3.6513,3.6516,3.6529,3.6523,3.6509,3.6519,3.6408,3.6513,3.6513,3.6512,3.6512,3.6512,3.58,3.5844,3.5902,3.5964,3.6007,3.6054,3.61,3.6137,3.6193,3.6263,3.628,3.6349,3.6404,3.6492,3.6527,3.6582,3.6575,3.6593,3.6598,3.6602,3.6604,3.65,3.6593,3.6593,3.6593,3.6593,3.6593,0,3.5881,3.5919,3.5976,3.6048,3.6098,3.6103,3.616,3.6201,3.6263,3.6313,3.6367,3.6443,3.6506,3.6553,3.6617,3.6652,3.6658,3.6667,3.6666,3.6674,3.6606,3.6589,3.6662,3.6662,3.6662,3.6662,3.6662,3.6662,3.5928,3.6003,3.6027,3.6123,3.616,3.623,3.6262,3.6307,3.6347,3.6432,3.6485,3.6516,3.6565,3.6633,3.6691,3.6704,3.6727,3.6736,3.6749,3.6685,3.6678,3.6671,3.6656,3.6741,3.6741,3.6813,3.6813,3.6814]}]]